Home   Weather   USA   Red Wing   Past weeks
Flag for USA

Past Weather in Red Wing, Minnesota, USA — Yesterday and Last 2 Weeks

Currently: 34 °F. Light snow. Mostly cloudy. (Weather station: Red Wing Municipal Airport, USA). See more current weather

Past Weather in Red Wing — Graph

°F

Red Wing Temperature Yesterday

Maximum temperature yesterday: 48 °F (at 12:15 am)
Minimum temperature yesterday: 41 °F (at 11:55 pm)
Average temperature yesterday: 44 °F

High & Low Weather Summary for the Past Weeks

 TemperatureHumidityPressure
High84 °F (Apr 5, 3:35 pm)100% (Apr 9, 5:15 am)30.59 "Hg (Apr 9, 5:15 am)
Low16 °F (Apr 1, 5:15 am)10% (Apr 3, 4:55 pm)29.37 "Hg (Mar 29, 6:35 pm)
Average50 °F59%29.83 "Hg
* Reported Mar 29 2:15 pm — Apr 13 2:15 pm, Red Wing. Weather by CustomWeather, © 2021

Note: Actual official high and low records may vary slightly from our data, if they occured in-between our weather recording intervals... More about our weather records

Red Wing Weather History for the Previous 24 Hours

Scroll right to see more
 ConditionsComfort  
Time TempWeatherWind HumidityBarometerVisibility
2:15 pm
Tue, Apr 13
36 °FLight snow. Overcast.15 mph60%30.04 "Hg10 mi
1:55 pm36 °FMostly cloudy.17 mph60%30.04 "Hg10 mi
1:35 pm36 °FOvercast.13 mph60%30.04 "Hg10 mi
1:15 pm36 °FOvercast.20 mph60%30.03 "Hg10 mi
12:55 pm36 °FOvercast.17 mph56%30.03 "Hg10 mi
12:35 pm36 °FOvercast.15 mph56%30.03 "Hg10 mi
12:15 pm36 °FOvercast.22 mph56%30.02 "Hg10 mi
11:55 am36 °FOvercast.16 mph56%30.02 "Hg10 mi
11:35 am36 °FMostly cloudy.20 mph56%30.02 "Hg10 mi
11:15 am36 °FCloudy.17 mph65%30.01 "Hg10 mi
10:55 am34 °FMore clouds than sun.16 mph75%30.01 "Hg10 mi
10:35 am36 °FMostly cloudy.20 mph70%30.00 "Hg10 mi
10:15 am36 °FOvercast.14 mph65%29.99 "Hg10 mi
9:55 am36 °FMore clouds than sun.17 mph65%29.98 "Hg10 mi
9:35 am36 °FMostly cloudy.15 mph65%29.98 "Hg10 mi
9:15 am36 °FOvercast.10 mph65%29.97 "Hg10 mi
8:35 am36 °FPartly sunny.14 mph70%29.97 "Hg10 mi
8:15 am36 °FPartly sunny.15 mph75%29.97 "Hg10 mi
7:55 am34 °FMostly cloudy.9 mph75%29.97 "Hg10 mi
7:35 am34 °FCloudy.10 mph81%29.97 "Hg10 mi
7:15 am36 °FCloudy.9 mph81%29.96 "Hg10 mi
6:55 am36 °FOvercast.9 mph75%29.96 "Hg10 mi
6:35 am36 °FOvercast.12 mph70%29.96 "Hg10 mi
6:15 am36 °FOvercast.12 mph70%29.96 "Hg10 mi
5:55 am36 °FOvercast.13 mph70%29.95 "Hg10 mi
5:37 am36 °FPassing clouds.14 mph70%29.95 "Hg10 mi
5:16 am36 °FPassing clouds.13 mph70%29.95 "Hg10 mi
4:55 am34 °FClear.13 mph81%29.95 "Hg10 mi
4:35 am34 °FClear.8 mph81%29.95 "Hg10 mi
4:15 am34 °FClear.13 mph81%29.95 "Hg10 mi
3:55 am36 °FPassing clouds.10 mph75%29.94 "Hg10 mi
3:35 am36 °FMostly cloudy.13 mph81%29.94 "Hg10 mi
3:15 am36 °FPassing clouds.13 mph81%29.94 "Hg10 mi
2:55 am36 °FPassing clouds.8 mph81%29.94 "Hg10 mi
2:35 am36 °FPartly cloudy.10 mph87%29.94 "Hg10 mi
2:15 am36 °FMostly cloudy.7 mph93%29.94 "Hg10 mi
1:55 am36 °FDrizzle. Overcast.10 mph93%29.93 "Hg7 mi
1:35 am37 °FLight rain. Mostly cloudy.14 mph87%29.93 "Hg10 mi
1:15 am39 °FOvercast.10 mph81%29.92 "Hg10 mi
12:55 am39 °FMostly cloudy.14 mph75%29.92 "Hg10 mi
12:35 am39 °FOvercast.10 mph70%29.91 "Hg10 mi
12:15 am41 °FMostly cloudy.15 mph76%29.91 "Hg10 mi
11:55 pm
Mon, Apr 12
41 °FDrizzle. Overcast.14 mph76%29.90 "Hg10 mi
11:35 pm43 °FPartly cloudy.15 mph71%29.89 "Hg10 mi
11:15 pm43 °FOvercast.12 mph76%29.89 "Hg10 mi
10:55 pm43 °FLight rain. Overcast.12 mph81%29.88 "Hg10 mi
10:35 pm43 °FLight rain. Mostly cloudy.15 mph81%29.87 "Hg10 mi
10:15 pm43 °FOvercast.14 mph76%29.87 "Hg10 mi
9:55 pm43 °FOvercast.12 mph76%29.86 "Hg10 mi
9:35 pm43 °FMostly cloudy.8 mph76%29.86 "Hg10 mi
9:15 pm43 °FMostly cloudy.8 mph76%29.86 "Hg10 mi
8:55 pm43 °FMostly cloudy.7 mph76%29.86 "Hg10 mi
8:35 pm43 °FPassing clouds.9 mph76%29.86 "Hg10 mi
8:15 pm43 °FOvercast.9 mph76%29.85 "Hg10 mi
7:55 pm43 °FMostly cloudy.12 mph76%29.84 "Hg10 mi
7:35 pm43 °FMore clouds than sun.10 mph76%29.84 "Hg10 mi
7:15 pm43 °FCloudy.9 mph76%29.84 "Hg10 mi
6:55 pm43 °FDrizzle. Cloudy.13 mph76%29.84 "Hg10 mi
6:35 pm43 °FDrizzle. Overcast.10 mph76%29.84 "Hg10 mi
6:15 pm43 °FDrizzle. Overcast.10 mph81%29.84 "Hg10 mi
5:55 pm43 °FLight rain. Overcast.8 mph81%29.83 "Hg10 mi
5:35 pm43 °FLight rain. Overcast.13 mph81%29.83 "Hg10 mi
5:15 pm43 °FDrizzle. Overcast.13 mph76%29.83 "Hg10 mi
4:55 pm43 °FDrizzle. Overcast.12 mph81%29.82 "Hg10 mi
4:35 pm43 °FLight rain. Overcast.12 mph76%29.81 "Hg10 mi
4:15 pm43 °FDrizzle. Overcast.12 mph76%29.81 "Hg10 mi
3:35 pm43 °FDrizzle. Mostly cloudy.14 mph81%29.80 "Hg10 mi
3:15 pm43 °FDrizzle. Overcast.13 mph81%29.79 "Hg10 mi
Weather by CustomWeather, © 2021

See weather overview